West Memphis, AR

11:52 PM CDT on September 22, 2017 (GMT -0500)
West Memphis Municipal

Weather History for KAWM - January, 2012

Change the Weather History Date:

Friday, January 20, 2012

  Actual Average Record
Temperature  
Mean Temperature 53 °F -  
Max Temperature 64 °F 47 °F 70 °F (1974)
Min Temperature 42 °F 28 °F -9 °F (1985)
Degree Days  
Heating Degree Days 12    
Growing Degree Days 3 (Base 50)    
Moisture  
Dew Point 44 °F    
Average Humidity 80    
Maximum Humidity 100    
Minimum Humidity 66    
Precipitation  
Precipitation 0.00 in - - ()
Sea Level Pressure  
Sea Level Pressure 29.88 in    
Wind  
Wind Speed 5 mph (ENE)    
Max Wind Speed 12 mph    
Max Gust Speed 18 mph    
Visibility 9 miles    
Events      
Averages and records for this station are not official NWS values.
T = Trace of Precipitation, MM = Missing Value Source: NWS Daily Summary

Daily Weather History Graph

Daily Weather History Graph

Search for Another Location

Airport or City:

Trip Planner

Search our weather history database for the weather conditions in past years. The results will help you decide how hot, cold, wet, or windy it might be!

Date:

Astronomy

Jan. 20, 2012 Rise Set
Actual Time 7:07 AM CST 5:16 PM CST
Civil Twilight 6:39 AM CST 5:44 PM CST
Nautical Twilight 6:09 AM CST 6:15 PM CST
Astronomical Twilight 5:38 AM CST 6:45 PM CST
Moon 4:42 AM CST (1/20) 2:51 PM CST (1/20)
Length of Visible Light 11h 04m
Length of Day
10h 09m
Waning Crescent, 8% of the Moon is Illuminated
Jan 20
Waning Crescent
Jan 23
New
Jan 30
First Quarter
Feb 7
Full
Feb 14
Last Quarter

Hourly Weather History & Observations

Time (CST) Temp. Windchill Dew Point Humidity Pressure Visibility Wind Dir Wind Speed Gust Speed Precip Events Conditions
12:24 AM 46.4 °F - 46.4 °F 100% 29.96 in 2.5 mi Calm Calm - N/A   Overcast
12:32 AM 48.2 °F - 46.4 °F 93% 29.96 in 2.0 mi Calm Calm - N/A   Overcast
12:53 AM 48.0 °F - 46.0 °F 93% 29.97 in 2.5 mi North 9.2 mph - N/A   Overcast
1:00 AM 46.4 °F 41.9 °F 44.6 °F 93% 29.97 in 4.0 mi North 9.2 mph - N/A   Overcast
1:11 AM 46.4 °F 41.9 °F 44.6 °F 93% 29.97 in 5.0 mi NNE 9.2 mph - N/A   Overcast
1:53 AM 46.0 °F 41.9 °F 41.0 °F 83% 29.97 in 9.0 mi NNE 8.1 mph - N/A   Overcast
2:53 AM 46.0 °F 43.9 °F 39.9 °F 79% 29.96 in 10.0 mi NNE 4.6 mph - N/A   Overcast
3:53 AM 46.0 °F 43.1 °F 39.9 °F 79% 29.94 in 10.0 mi North 5.8 mph - N/A   Overcast
4:53 AM 43.0 °F 38.2 °F 37.0 °F 80% 29.94 in 10.0 mi North 8.1 mph - N/A   Overcast
5:16 AM 42.8 °F 38.0 °F 37.4 °F 81% 29.95 in 10.0 mi NNE 8.1 mph - N/A   Overcast
5:53 AM 43.0 °F 39.5 °F 36.0 °F 76% 29.94 in 10.0 mi NNE 5.8 mph - N/A   Overcast
6:18 AM 42.8 °F 41.1 °F 35.6 °F 76% 29.94 in 10.0 mi NNE 3.5 mph - N/A   Overcast
6:37 AM 42.8 °F 41.1 °F 37.4 °F 81% 29.94 in 10.0 mi NNE 3.5 mph - N/A   Overcast
6:53 AM 43.0 °F 40.3 °F 37.0 °F 80% 29.94 in 10.0 mi NNE 4.6 mph - N/A   Overcast
7:18 AM 42.8 °F - 35.6 °F 76% 29.93 in 10.0 mi Calm Calm - N/A   Scattered Clouds
7:53 AM 45.0 °F 42.6 °F 37.0 °F 74% 29.94 in 10.0 mi NE 4.6 mph - N/A   Mostly Cloudy
8:03 AM 44.6 °F 42.2 °F 37.4 °F 76% 29.94 in 10.0 mi NE 4.6 mph - N/A   Mostly Cloudy
8:49 AM 46.4 °F 43.5 °F 35.6 °F 66% 29.94 in 10.0 mi ENE 5.8 mph - N/A   Overcast
8:53 AM 46.0 °F 43.1 °F 36.0 °F 68% 29.95 in 10.0 mi East 5.8 mph - N/A   Overcast
9:00 AM 46.4 °F 43.5 °F 37.4 °F 71% 29.95 in 10.0 mi ENE 5.8 mph - N/A   Overcast
9:32 AM 46.4 °F 41.9 °F 35.6 °F 66% 29.94 in 10.0 mi ENE 9.2 mph - N/A   Overcast
9:53 AM 46.9 °F - 37.0 °F 68% 29.93 in 10.0 mi East 6.9 mph - N/A   Overcast
10:26 AM 48.2 °F - 37.4 °F 66% 29.92 in 10.0 mi East 6.9 mph - N/A   Overcast
10:53 AM 48.9 °F - 39.0 °F 69% 29.90 in 10.0 mi ESE 8.1 mph - N/A   Overcast
11:44 AM 51.8 °F - 42.8 °F 71% 29.88 in 10.0 mi East 3.5 mph - N/A   Overcast
11:53 AM 51.1 °F - 42.1 °F 71% 29.88 in 10.0 mi ESE 3.5 mph - N/A   Overcast
12:53 PM 55.0 °F - 46.0 °F 72% 29.82 in 10.0 mi SE 5.8 mph - N/A   Overcast
1:13 PM 55.4 °F - 46.4 °F 72% 29.81 in 10.0 mi ESE 6.9 mph - N/A   Overcast
1:53 PM 57.9 °F - 50.0 °F 75% 29.78 in 10.0 mi SSE 8.1 mph - N/A   Overcast
2:16 PM 59.0 °F - 51.8 °F 77% 29.78 in 10.0 mi SSE 6.9 mph - N/A   Overcast
2:53 PM 62.1 °F - 54.0 °F 75% 29.77 in 10.0 mi South 10.4 mph - N/A   Overcast
3:00 PM 62.6 °F - 55.4 °F 77% 29.76 in 10.0 mi SSE 9.2 mph - N/A   Overcast
3:53 PM 64.0 °F - 57.9 °F 80% 29.75 in 10.0 mi South 10.4 mph - N/A   Overcast
4:53 PM 63.0 °F - 57.9 °F 84% 29.75 in 9.0 mi South 6.9 mph - N/A   Scattered Clouds
5:53 PM 59.0 °F - 57.0 °F 93% 29.74 in 9.0 mi South 9.2 mph - N/A   Clear
6:53 PM 57.0 °F - 55.9 °F 96% 29.74 in 7.0 mi South 8.1 mph - N/A   Clear
7:53 PM 59.0 °F - 57.0 °F 93% 29.76 in 7.0 mi NNW 3.5 mph - N/A   Overcast
8:53 PM 51.1 °F - 46.9 °F 86% 29.79 in 10.0 mi North 5.8 mph - N/A   Partly Cloudy
9:53 PM 48.0 °F - 44.1 °F 86% 29.80 in 10.0 mi Variable 4.6 mph - N/A   Clear
10:53 PM 46.9 °F - 43.0 °F 86% 29.81 in 10.0 mi NW 4.6 mph - N/A   Clear
11:27 PM 46.4 °F 41.5 °F 42.8 °F 87% 29.84 in 10.0 mi NNW 10.4 mph - N/A   Overcast
11:53 PM 46.0 °F 40.6 °F 41.0 °F 83% 29.86 in 10.0 mi North 11.5 mph 18.4 mph N/A   Overcast